Location: New Mesquite
(33.1168°N, 96.4336°W)
Time: 19:47:30
(UTC+00:00)

CZ-2C R/B - Pass Details

Date: 28 June 2022
Orbit: 784 x 871 km, 98.2° (Epoch: 07 August)

Event Time Altitude Azimuth Distance (km) Brightness Sun altitude
Rises 09:54:32 0° 131° (SE) 3,382 5.9 -15.3°
Reaches altitude 10° 09:57:20 10° 117° (ESE) 2,465 5.4 -14.9°
Maximum altitude 10:01:30 23° 67° (ENE) 1,760 5.3 -14.2°
Drops below altitude 10° 10:05:43 10° 18° (NNE) 2,508 6.1 -13.6°
Sets 10:08:35 0° 4° (N) 3,456 6.6 -13.1°
